{"data":{"norad_id":69243,"intl_designator":"2026-117F","name":"STARLINK-37735","alt_names":[],"object_type":"PAYLOAD","status":"ACTIVE","operator":null,"country":"US","launch_date":"2026-05-29","launch_site_code":"AFETR","launch_vehicle":null,"mission":null,"orbit_class":"UNKNOWN","rcs_meters":null,"size_class":null,"mass_kg":null,"dimensions":null,"purposes":["comms"],"wikipedia_slug":null,"has_3d_model":false,"image_url":null,"decayed_at":null,"tle_current":{"epoch":"2026-09-20T02:03:04.919040Z","epoch_age_seconds":62842,"freshness":"FRESH","line1":"1 69243U 26117F   26263.08547360  .00013744  00000+0  41774-3 0  9997","line2":"2 69243  53.1573 155.6680 0001141 104.7203 255.3926 15.34356571 17601","mean_motion":15.34356571,"eccentricity":0.0001141,"inclination_deg":53.1573,"raan_deg":155.668,"arg_perigee_deg":104.7203,"mean_anomaly_deg":255.3926,"bstar":0.00041774,"rev_number":1760,"period_min":93.850414383242,"perigee_km":462.05176879215,"apogee_km":463.61287799175,"semimajor_km":6840.969323392,"source":"CELESTRAK","updated_at":"2026-09-20T09:00:44.148261Z"}}}